#timestamp,LO_Frequency,Hit,StdDev 
1622016015.4,286047002.4,P
1622016035.2,286047001.5,N
1622016055.0,286047001.9,N
1622016055.9,286047001.9,N
1622016075.8,286047001.3,N
1622016095.6,286047003.9,Y
1622016115.5,286047001.6,P
1622016135.3,286047002.2,P
1622016155.1,286046998.5,P
1622016175.9,286046996.8,N
1622016195.7,286046999.5,N
1622016215.6,286046999.7,N
1622016235.4,286047001.5,N
1622016255.2,286047003.8,N
1622016275.1,286047002.0,N
1622016276.0,286047002.0,N
1622016295.8,286047002.4,N
1622016315.7,286047000.5,N
1622016335.5,286047000.6,N
1622016355.3,286047000.1,N
1622016375.2,286047001.9,N
1622016395.0,286046999.7,N
1622016395.9,286046999.7,N
1622016415.8,286047002.1,N
1622016435.6,286047000.5,N
1622016455.4,286046998.7,N
1622016475.3,286046998.9,N
1622016495.1,286046996.8,N
1622016515.8,286046997.6,N
1622016535.7,286046998.8,N
1622016555.5,286046998.2,N
1622016575.4,286047001.2,N
1622016595.2,286046999.2,N
1622016615.0,286046998.0,N
1622016615.9,286046998.0,N
1622016635.8,286046998.3,N
1622016655.6,286047000.0,N
1622016675.4,286047000.4,N
1622016695.3,286047002.8,N
1622016715.1,286047002.8,N
1622016735.9,286046999.9,N
1622016755.7,286047000.1,N
1622016775.5,286046998.1,N
1622016795.4,286046999.0,N
1622016815.2,286046998.8,N
1622016835.0,286046996.5,N
1622016835.9,286046996.5,N
1622016855.8,286046999.0,N
1622016875.6,286047001.0,N
1622016895.5,286047002.7,N
1622016915.3,286046998.4,N
1622016935.1,286046996.5,N
1622016955.9,286046996.5,N
1622016975.7,286046999.2,N
1622016995.6,286046997.3,N
1622017015.4,286046995.1,N
1622017035.2,286046994.9,N
1622017055.1,286046995.1,N
1622017056.0,286046995.1,N
1622017075.8,286046997.9,N
1622017095.6,286046994.9,N
1622017115.5,286046995.0,N
1622017135.3,286046998.7,N
1622017155.2,286047000.8,N
1622017175.9,286046999.4,N
1622017195.7,286046997.0,N
1622017215.6,286046998.6,N
1622017235.4,286046997.6,N
1622017255.3,286046994.6,N
1622017275.1,286046990.5,Y
1622017276.0,286046990.5,P
1622017295.8,286046993.5,N
1622017315.7,286046996.1,N
1622017335.5,286046993.4,N
1622017355.3,286046995.5,N
1622017375.2,286046997.3,N
1622017395.0,286046997.6,N
1622017395.9,286046997.6,N
1622017415.8,286046999.2,N
1622017435.6,286046999.4,N
1622017455.4,286046998.8,N
1622017475.3,286046998.9,N
1622017495.1,286046997.1,N
1622017515.8,286046995.5,N
1622017535.7,286046993.4,N
1622017555.5,286046995.7,N
1622017575.4,286046995.0,N
1622017595.2,286046994.4,N
1622017615.0,286046994.4,N
1622017615.9,286046994.4,N
1622017635.8,286046995.6,N
1622017655.6,286046996.3,N
1622017675.5,286046993.3,Y
1622017695.3,286047000.9,P
1622017715.2,286046998.2,N
1622017735.9,286047000.6,N
1622017755.7,286046999.9,N
1622017775.6,286047001.1,N
1622017795.4,286046997.1,N
1622017815.2,286046997.3,N
1622017835.1,286046999.5,N
1622017836.0,286046999.5,N
1622017855.8,286046996.7,N
1622017875.7,286047000.7,N
1622017895.5,286047002.7,N
1622017915.3,286047000.5,N
1622017935.2,286046999.7,N
1622017955.0,286046998.8,N
1622017955.9,286046998.8,N
1622017975.8,286046997.2,N
1622017995.6,286046997.0,N
1622018015.4,286046999.1,N
1622018035.3,286046997.7,N
1622018055.1,286046999.5,N
1622018075.8,286046998.2,N
1622018095.7,286046997.7,N
1622018115.5,286046997.1,N
1622018135.4,286046997.3,N
1622018155.2,286046997.9,N
1622018175.0,286046996.5,N
1622018175.9,286046996.5,N
1622018195.8,286046996.7,N
1622018215.6,286046999.0,N
1622018235.4,286046996.5,N
1622018255.3,286046998.4,N
1622018275.1,286046998.3,N
1622018295.9,286046997.1,N
1622018315.7,286046996.5,N
1622018335.5,286046997.1,N
1622018355.4,286046997.0,N
1622018375.2,286047001.1,N
1622018395.0,286047011.9,Y
1622018396.0,286046996.8,P
1622018415.8,286047000.3,N
1622018435.6,286047001.7,N
1622018455.5,286047002.2,N
1622018475.3,286047005.6,N
1622018495.1,286047011.9,Y
1622018515.9,286047002.8,P
1622018535.7,286047000.5,N
1622018555.6,286047000.9,N
1622018575.4,286047002.8,Y
1622018595.2,286047002.0,P
1622018615.1,286046999.7,N
1622018616.0,286046999.7,N
1622018635.8,286047000.3,N
1622018655.7,286046997.1,Y
1622018675.5,286046997.0,P
1622018695.3,286046997.3,N
1622018715.2,286046997.0,N
1622018735.0,286047000.8,N
1622018735.9,286047000.8,N
1622018755.7,286046998.1,N
1622018775.6,286046998.4,N
1622018795.4,286046998.9,N
1622018815.3,286047001.1,N
1622018835.1,286046998.8,N
1622018836.0,286046998.8,N
1622018855.8,286046998.9,N
1622018875.7,286046996.6,N
1622018895.5,286046998.3,N
1622018915.3,286046997.2,N
1622018935.2,286046998.1,N
1622018955.0,286047000.9,N
1622018955.9,286047000.9,N
1622018975.8,286047002.4,N
1622018995.6,286047002.5,N
1622019015.4,286046998.6,N
1622019035.3,286046998.7,N
1622019055.1,286046998.2,N
1622019075.8,286046998.3,N
1622019095.7,286047000.3,N
1622019115.5,286046999.8,N
1622019135.4,286047000.1,N
1622019155.2,286047004.0,N
1622019175.0,286047002.0,N
1622019175.9,286047002.0,N
1622019195.8,286047000.3,N
1622019215.6,286047000.5,N
1622019235.4,286047004.0,N
1622019255.3,286047000.5,N
1622019275.1,286047000.8,N
1622019295.9,286047002.5,N
1622019315.7,286047002.5,N
1622019335.5,286047002.7,N
1622019355.4,286047001.8,N
1622019375.2,286046999.8,N
1622019395.0,286047001.8,N
1622019395.9,286047001.8,N
1622019415.8,286047002.0,N
1622019435.6,286047004.3,N
1622019455.5,286047000.8,N
1622019475.3,286046999.8,N
1622019495.1,286047004.3,N
1622019515.9,286047003.3,N
1622019535.7,286047005.2,N
1622019555.5,286047005.6,N
1622019575.4,286047006.0,N
1622019595.2,286047005.4,N
